Regional Weather Roundup
Issued by NWS Grand Forks, ND

Home | Current Version | Previous Version | Graphics & Text | Print | Product List | Glossary On
Versions: 1 2 3 4 5 6 7 8 9 10 11 12 13 14 15 16 17 18 19 20 21 22 23 24 25 26 27 28 29 30 31 32 33 34 35 36 37 38 39 40 41 42 43 44 45 46 47 48 49 50
000
ASUS43 KFGF 290710
RWRFGF
PRAIRIE TO PINES  WEATHER ROUNDUP
NATIONAL WEATHER SERVICE EASTERN NORTH DAKOTA/GRAND FORKS ND
200 AM CDT FRI AUG 29 2014

 **SATELLITE DATA USED TO AUGMENT SKY COVER AT AUTOMATED STATIONS**
 *****  WEATHER ACROSS EASTERN NORTH DAKOTA  *****

CITY           SKY/WX    TMP DP  RH WIND       PRES   REMARKS
GRAND FORKS    CLOUDY    67  64  90 S9        29.79F
GRAND FRKS AFB CLOUDY    67  67  99 S10       29.80F
GRAND FRKS NWS   N/A     64 N/A N/A SW7         N/A
DEVILS LAKE    CLOUDY    66  63  88 S13       29.77F
FARGO          CLOUDY    67  64  90 SE7       29.81F
WAHPETON ARPT  CLOUDY    64  61  88 CALM      29.82F
$$

 ***** WEATHER ACROSS CENTRAL AND WESTERN NORTH DAKOTA  *****

CITY           SKY/WX    TMP DP  RH WIND       PRES   REMARKS
BISMARCK       MOCLDY    64  63  96 SE3       29.80F FOG
MINOT          PTCLDY    70  63  78 SW12      29.72F
JAMESTOWN      CLOUDY    65  64  97 S8        29.81F FOG
MINOT AFB      CLEAR     68  67  95 SW10      29.71F
GARRISON         N/A     65  64  97 S6        29.77F
WILLISTON      CLEAR     63  54  72 N9        29.79R
DICKINSON      CLEAR     62  55  77 NW6       29.80F
HETTINGER      CLEAR     58  56  93 SE3       29.85F
$$

 *****  OTHER AIRPORT OBSERVATIONS IN OUR AREA  *****

CITY           SKY/WX    TMP DP  RH WIND       PRES   REMARKS
WALHALLA         N/A     66  66 100 S7        29.77F
GRAFTON AIRPOR CLOUDY    66  66 100 S10G16    29.79S
VALLEY CITY AR CLOUDY    64  64 100 S9        29.82F
CANDO          CLOUDY    64  64 100 S10G16    29.79R
CAVALIER APRT  CLOUDY    66  64  94 S10G16    29.78S
GWINNER        CLOUDY    66  66 100 CALM      29.84S
SHEYENNE NWR     N/A     65  65  99 S3        29.95S
ROLLA          FAIR      64  64 100 S9        29.77F
 ***** THE ABOVE OBSERVATIONS ARE NON NWS ARE NOT QUALITY
       CONTROLLED AND MAY MIS-REPORT RAIN FOR SNOW...
$$

  *****  WEATHER ACROSS NORTHERN MINNESOTA  *****

CITY           SKY/WX    TMP DP  RH WIND       PRES   REMARKS
FLAG ISLAND    CLOUDY    68  63  83 S8        29.82R
WARROAD        MOCLDY    64  61  88 SW3       29.83F
ROSEAU         MOCLDY    66  61  82 S7        29.83S
HALLOCK        CLOUDY    66  64  94 S9        29.79F
THF RVR FALLS  CLOUDY    63  61  94 S6        29.83F
BAUDETTE       CLOUDY    64  61  90 CALM      29.84F
WASKISH        CLOUDY    64  61  88 SE6       29.85F
CROOKSTON      MOCLDY    64  63  94 S5        29.82F
$$
  *****  WEATHER ACROSS CENTRAL AND WEST MINNESOTA  *****

CITY           SKY/WX    TMP DP  RH WIND       PRES   REMARKS
FOSSTON        CLOUDY    63  61  94 SE5       29.85F
BEMIDJI        CLOUDY    64  62  93 S9        29.87S
PARK RAPIDS    LGT RAIN  64  63  96 SE8       29.85F
ELBOW LAKE     CLOUDY    65  64  99 SE8       29.82F
WADENA         DRIZZLE   63  63 100 SE7       29.84F
DETROIT LAKES  DRIZZLE   64  63  94 SE9       29.85F
MOORHEAD       CLOUDY    66  66 100 S6        29.82F
FERGUS FALLS   CLOUDY    66  64  94 SE5       29.83F
MORRIS MN      CLOUDY    66  64  94 SE6       29.81F FOG
STAPLES        RAIN      63  63 100 SE6       29.85F
$$
  *****  WEATHER ELSEWHERE ACROSS MINNESOTA  *****

CITY           SKY/WX    TMP DP  RH WIND       PRES   REMARKS
DULUTH         CLOUDY    60  56  86 E5        29.91F
INTRNTL FALLS  CLOUDY    62  59  90 CALM      29.87F
ELY            CLOUDY    59  52  77 S5        29.92F
CLOQUET        CLOUDY    61  57  88 E3        29.91F
WHEATON        CLOUDY    64  63  94 CALM      29.83S FOG
BRAINERD       CLOUDY    63  62  97 SE5       29.88F
HIBBING        CLOUDY    59  56  89 CALM      29.90F
ALEXANDRIA     CLOUDY    65  63  93 SE12      29.85F
SAINT CLOUD    CLOUDY    67  64  90 E6        29.84F FOG
MINNEAPOLIS    CLOUDY    66  65  96 SE13      29.85F
$$

  *****  WEATHER ACROSS SOUTH DAKOTA  *****

CITY           SKY/WX    TMP DP  RH WIND       PRES   REMARKS
SIOUX FALLS    CLOUDY    72  70  93 S13       29.78F
BROOKINGS      NOT AVBL
WATERTOWN      CLOUDY    66  66 100 E3        29.79F FOG
HURON          CLOUDY    69  68  96 CALM      29.78S FOG
SISSETON         N/A     65  65 100 N3        29.81F
ABERDEEN       MOCLDY    64  64 100 NE6       29.81F
MITCHELL       CLOUDY    71  70  96 CALM      29.78S FOG
PIERRE         MOCLDY    65  65 100 W6        29.80F
MOBRIDGE       CLOUDY    65  65 100 SE6       29.81F
RAPID CITY     CLEAR     56  55  97 CALM      29.91F
$$

  *****  SOME WEATHER IN NEARBY STATES *****

CITY           SKY/WX    TMP DP  RH WIND       PRES   REMARKS
GLASGOW MT     CLOUDY    61  59  93 N17G24    29.91R
GREAT FALLS MT CLOUDY    53  49  86 W3        30.13S
CHEYENNE WY    CLEAR     52  45  77 W13       30.13F
SCOTTSBLUFF NE CLEAR     52  51  97 N3        30.01F
OMAHA NE       CLOUDY    73  68  84 SE10      29.82F
DES MOINES IA  LGT RAIN  69  66  90 NE8       29.88F
DAVENPORT IA   PTCLDY    69  67  93 S8        29.95F
CHICAGO IL     CLOUDY    71  64  78 S7        29.98F
EAU CLAIRE WI  CLOUDY    61  58  90 SE12      29.92F
LA CROSSE WI   CLOUDY    66  61  84 E6        29.91F
$$

  *****  SOME NATIONAL WEATHER *****

CITY           SKY/WX    TMP DP  RH WIND       PRES   REMARKS
LA GUARDIA NY  CLEAR     66  51  58 N7        30.07S
RALEIGH NC     TSTM      74  69  85 SE3       30.03F
ATLANTA GA     PTCLDY    72  59  63 CALM      30.03F
NEW ORLEANS LA PTCLDY    81  73  76 CALM      29.95F
OKLAHOMA CITY  LGT RAIN  70  64  81 SE9       29.89F
ALBUQUERQUE NM CLEAR     72  41  32 N7        30.15S
SALT LAKE CITY CLEAR     66  46  48 SE8       30.08F
LOS ANGELES CA CLEAR     71  59  65 SW5       29.90S
BOISE ID       CLEAR     71  41  33 SE3       29.96R
SEATTLE WA     PTCLDY    63  58  83 SW3       30.03F
$$

*** WEATHER ACROSS MANITOBA...SASKATCHEWAN AND ONTARIO ***
                ***ONTARIO***

CITY           SKY/WX    TMP DP  RH WIND       PRES   REMARKS
GERALDTON      CLEAR     52  45  76 SW8       29.97F
THUNDER BAY    CLOUDY    52  50  93 W2        29.96F
SIOUX LOOKOUT  CLOUDY    66  59  77 SW8       29.86R
TORONTO        MOCLDY    55  48  76 N5        30.16S
BIG TROUT LK   CLOUDY    61  57  88 S12G18    29.63F
PICKLE LAKE    NOT AVBL
DRYDEN         CLOUDY    66  59  77 SW12      29.86R
KENORA         MOCLDY    64  63  94 SW7       29.85R
$$
                *** MANITOBA***

CITY           SKY/WX    TMP DP  RH WIND       PRES   REMARKS
BRANDON        TSTM      63  61  94 E15       29.75S
DAUPHIN        MOCLDY    61  61 100 SW5       29.80R
ISLAND LAKE    NOT AVBL
PILOT MOUND      N/A     66  64  94 SW12        N/A
THE PAS        CLEAR     59  45  58 N16G25    29.83R
THOMPSON       MOCLDY    52  50  93 NW7       29.72R
WINNIPEG       MOCLDY    66  64  94 S13G20    29.76F
LYNN LAKE      CLEAR     48  45  87 MISG      29.81R
CHURCHILL      CLOUDY    50  46  87 N15       29.64R
GILLAM         MOCLDY    55  54  94 SW5       29.64F
$$
                ***SASKATCHEWAN***

CITY           SKY/WX    TMP DP  RH WIND       PRES   REMARKS
ESTEVAN        MOCLDY    63  57  82 NW7       29.79R
KINDERSLEY     PTCLDY    48  46  93 NW7       30.01R
LLOYDMINSTER   CLEAR     46  43  87 N2        30.00S
PRINCE ALBERT  MOCLDY    50  43  76 N5        29.97R
REGINA         CLOUDY    59  55  88 NW10G18   29.90R
YORKTON        MOCLDY    61  54  77 N7        29.85R
N. BATTLEFORD  CLEAR     45  45 100 N2        30.01R
LA RONGE       CLEAR     43  37  81 W3        29.95S
SASKATOON      MOCLDY    52  48  87 N13       29.98R
SWIFT CURRENT  CLOUDY    54  50  87 NW7       29.99S
$$
NOTE: THESE ARE AUTOMATED STATIONS WITH LIMITED QUALITY CONTROL
      "FAIR" INDICATES FEW OR NO CLOUDS BELOW 12,000 FEET WITH NO
      SIGNIFICANT WEATHER AND/OR OBSTRUCTIONS TO VISIBILITY.
      SKY/WX - SKY CONDITION AND SIGNIFICANT WEATHER.
      TMP - AIR TEMPERATURE.    DP   - DEWPOINT TEMPERATURE.
      RH  - RELATIVE HUMIDITY.  PRES - PRESSURE.
      HX  - HEAT INDEX.         WCI  - WIND CHILL INDEX.
$



USA.gov is the U.S. government's official web portal to all federal, state and local government web resources and services.